Flag for Sweden Weather past 2 weeks in Stockholm, Sweden

Now
19 °F

Passing clouds.


Feels Like: 13 °F
Forecast: 20 / 29 °F
Wind: 5 mph from Southwest

Location: Stockholm Bromma Airport

Current Time: Dec 29, 2014 at 5:10:04 PM

Latest Report: Dec 29, 2014 at 4:20 PM


Visibility: N/A

Pressure: 30.30 "Hg

Humidity: 93%

Dew point: 18 °F

Location of StockholmLocation

Historic Weather in Stockholm — Graph

°F

Stockholm temperature yesterday

Maximum temperature yesterday: 19 °F (at 10:20 AM)
Minimum temperature yesterday: 10 °F (at 3:50 AM)
Average temperature yesterday: 14 °F

Past Weeks' High & Low Weather Summary

 TemperatureHumidityPressure
High41 °F (Dec 15, 9:50 AM)100% (Dec 17, 3:20 AM)30.33 "Hg (Dec 17, 3:20 AM)
Low10 °F (Dec 27, 8:50 AM)60% (Dec 21, 11:50 AM)29.06 "Hg (Dec 19, 6:20 AM)
Average29 °F88%29.58 "Hg
* Reported Dec 14 3:20 PM — Dec 29 3:50 PM, Stockholm, Weather by CustomWeather, © 2014

Note: Actual official high and low records may vary slightly from our data, if they occured in-between our weather recording intervals... More about our weather records

Advertising

Stockholm weather history for previous 24 hours

 ConditionsComfort  
Time TempWeatherWind HumidityBarometerVisibility
3:50 PM
Dec 29
19 °FPartly cloudy.3 mph93%30.30 "HgN/A
3:20 PM19 °FPassing clouds.5 mph93%30.30 "HgN/A
2:50 PM18 °FScattered clouds.3 mph100%30.30 "HgN/A
2:20 PM19 °FSunny.3 mph93%30.30 "Hg10 mi
1:50 PM19 °FSunny.3 mph93%30.30 "Hg10 mi
1:20 PM19 °FSunny.3 mph93%30.30 "Hg10 mi
12:50 PM19 °FPassing clouds.2 mph93%30.30 "HgN/A
12:20 PM19 °FSunny.3 mph93%30.30 "Hg10 mi
11:50 AM19 °FSunny.3 mph93%30.30 "Hg10 mi
11:20 AM18 °FSunny.No wind93%30.30 "Hg10 mi
10:50 AM18 °FSunny.2 mph93%30.30 "Hg10 mi
10:20 AM18 °FSunny.1 mph93%30.33 "Hg10 mi
9:50 AM16 °FIce fog.1 mph93%30.30 "Hg6 mi
9:20 AM16 °FIce fog.1 mph100%30.30 "Hg1 mi
8:50 AM18 °FLow clouds.1 mph93%30.30 "Hg1 mi
8:20 AM18 °FLow clouds.No wind93%30.30 "Hg1 mi
7:50 AM18 °FIce fog.2 mph93%30.30 "Hg1 mi
7:20 AM16 °FIce fog.1 mph100%30.30 "Hg1 mi
6:50 AM16 °FIce fog.2 mph93%30.30 "Hg1 mi
6:20 AM16 °FIce fog.2 mph93%30.30 "Hg1 mi
5:50 AM16 °FIce fog.2 mph93%30.27 "Hg1 mi
5:20 AM14 °FIce fog.2 mph92%30.27 "Hg1 mi
4:50 AM16 °FIce fog.3 mph93%30.30 "Hg1 mi
4:20 AM16 °FIce fog.2 mph93%30.30 "Hg0 mi
3:50 AM16 °FMostly cloudy.3 mph93%30.30 "Hg0 mi
3:20 AM16 °FIce fog.2 mph93%30.30 "Hg0 mi
2:50 AM16 °FIce fog.2 mph93%30.27 "Hg0 mi
2:20 AM14 °FIce fog.2 mph92%30.27 "Hg0 mi
1:50 AM14 °FLow clouds.2 mph92%30.27 "Hg0 mi
1:20 AM12 °FIce fog.No wind92%30.27 "Hg2 mi
12:50 AM10 °FLight snow. Low clouds.No wind92%30.27 "Hg0 mi
12:20 AM10 °FSnow. Low clouds.No wind85%30.27 "Hg1 mi
11:50 PM
Dec 28
10 °FSnow flurries. Low clouds.2 mph92%30.27 "Hg1 mi
11:20 PM10 °FLight snow. Low clouds.3 mph92%30.27 "Hg0 mi
10:20 PM12 °FLight snow. Low clouds.3 mph92%30.27 "Hg2 mi
9:50 PM12 °FLight snow. Passing clouds.3 mph92%30.27 "Hg2 mi
9:20 PM12 °FLight snow. Passing clouds.3 mph92%30.27 "Hg2 mi
8:50 PM12 °FIce fog.3 mph85%30.24 "Hg4 mi
8:20 PM14 °FLight snow. Passing clouds.1 mph85%30.24 "Hg3 mi
7:50 PM14 °FLight snow. Passing clouds.3 mph92%30.24 "Hg3 mi
7:20 PM14 °FSnow. Passing clouds.3 mph92%30.24 "Hg1 mi
6:50 PM14 °FLight snow. Passing clouds.6 mph92%30.24 "Hg1 mi
6:20 PM12 °FLight freezing rain. Passing clouds.5 mph92%30.21 "Hg1 mi
5:50 PM10 °FPassing clouds.2 mph92%30.21 "HgN/A
5:20 PM10 °FPassing clouds.2 mph92%30.21 "HgN/A
Weather by CustomWeather, © 2014

See weather overviewHow to use our weather pages